Regional Weather Roundup
Issued by NWS Northern Indiana

Home | Current Version | Previous Version | Text Only | Print | Product List | Glossary Off
Versions: 1 2 3 4 5 6 7 8 9 10 11 12 13 14 15 16 17 18 19 20 21 22 23 24 25 26 27 28 29 30 31 32 33 34 35 36 37 38 39 40 41 42 43 44 45 46 47 48 49 50

000
ASUS43 KIWX 191010
RWRIWX

KIWX WEATHER ROUNDUP
NATIONAL WEATHER SERVICE NORTHERN INDIANA
600 AM EDT SAT AUG 19 2017

NOTE: "FAIR" INDICATES FEW OR NO CLOUDS BELOW 12,000 FEET WITH NO
SIGNIFICANT WEATHER AND/OR OBSTRUCTIONS TO VISIBILITY.

* THESE STATIONS ARE NOT UNDER NWS QUALITY CONTROL. THEY ALSO MAY NOT
  REPORT WEATHER SUCH AS PRECIPITATION OR FOG.

INZ001>027-191100-
NORTHERN INDIANA

CITY           SKY/WX    TMP DP  RH WIND       PRES   REMARKS
GARY*          PTCLDY    68  61  77 N7        29.91S
VALPARAISO     CLEAR     67  63  87 CALM      29.91R
MICHIGAN CITY* MOCLDY    63  63 100 CALM      29.91S
LAPORTE*       PTCLDY    64  61  91 CALM      29.91S
KNOX*          CLOUDY    61  61 100 CALM      29.90R
SOUTH BEND     PTCLDY    62  62 100 W7        29.91R
GOSHEN         CLEAR     63  60  90 CALM      29.89R FOG
MONTICELLO*    MOCLDY    64  63  95 CALM      29.91S
LOGANSPORT*    CLOUDY    63  61  94 W3        29.92S
ROCHESTER*     PTCLDY    66  64  94 CALM      29.91R
WARSAW*        PTCLDY    61  61 100 W3        29.90R
AUBURN*        CLOUDY    63  61  94 CALM      29.90S FOG
FORT WAYNE     MOCLDY    65  63  93 S6        29.90S
HUNTINGTON*    MOCLDY    63  62  96 CALM      29.91R
PERU/GRISSOM   CLOUDY    67  67 100 W6        29.91R
MARION*        MOCLDY    64  63  94 W6        29.93R

$$
INZ028>050-191100-
CENTRAL INDIANA

CITY           SKY/WX    TMP DP  RH WIND       PRES   REMARKS
LAFAYETTE      PTCLDY    63  63 100 CALM      29.92R
MUNCIE*        CLOUDY    71  62  73 W7        29.93R
INDIANAPOLIS   MOCLDY    70  65  84 NW5       29.92R

$$
MIZ043>046-050>051-056>058-064>065-071>073-077>080-191100-
SOUTHWEST LOWER MICHIGAN

CITY           SKY/WX    TMP DP  RH WIND       PRES   REMARKS
BATTLE CREEK   CLOUDY    63  61  93 CALM      29.89S
BENTON HARBOR  CLEAR     69  61  75 VRB6      29.88S
COLDWATER*     CLOUDY    64  64 100 CALM      29.89R
HILLSDALE*     CLOUDY    63  59  88 CALM      29.88F
HOLLAND        FOG       60  59  96 CALM      29.89R VSB 1/2
GRAND RAPIDS   CLOUDY    61  60  97 CALM      29.88R
KALAMAZOO      MOCLDY    64  59  83 CALM      29.89R
STURGIS*       MOCLDY    63  62  97 CALM      29.88R
THREE RIVERS*  FAIR      64  61  92 CALM      29.89R

$$
OHZ001>008-015>018-024>025-191100-
NORTHWEST OHIO

CITY           SKY/WX    TMP DP  RH WIND       PRES   REMARKS
WAUSEON*       LGT RAIN  64  64 100 S7        29.89S
DEFIANCE       LGT RAIN  61  59  93 S5        29.89F
FINDLAY        CLOUDY    65  62  90 NW9       29.91R
TOLEDO EXPRESS RAIN      64  64 100 CALM      29.89R FOG
TOLEDO METCALF RAIN      66  64  93 W10       29.92R FOG
LIMA           MOCLDY    66  63  90 SW3       29.90R

$$
AND FOR LAKE MICHIGAN COASTAL AND OPEN LAKE BUOY OBSERVATIONS

STATION/POSITION TEMP    WIND        PRES    VSBY  WAVE
                 AIR SEA DIR/SP/G                  HT/PER
                 (F)     (DEG/KT/KT) (MB)    (MI)  (FT/S)
CALUMET HARBOR    68     330/  3/  6 1012.1S
MICHIGAN CITY     70     340/ 10/ 11   N/A
BURNS HARBOR      70     350/  8/ 14 1012.9
SAINT JOSEPH      71     350/ 11/ 13 1012.5
SOUTH LAKE BUOY   69 71  350/ 12/ 14 1011.9R         2/ 4
4 MI NW BRIDGMAN  71 73   10/ 12/ 16 1011.8S         3/ 4
MICHIGAN CITY     70 74  350/  8/ 12   N/A           3/ 4

$$
&&




USA.gov is the U.S. government's official web portal to all federal, state and local government web resources and services.